Regional Weather Roundup
Issued by NWS

Home | Current Version | Previous Version | Text Only | Print | Product List | Glossary On
Versions: 1 2 3 4 5 6 7 8 9 10 11 12 13 14 15 16 17 18 19 20 21 22 23 24 25 26 27 28 29 30 31 32 33 34 35 36 37 38 39 40 41 42 43 44 45 46 47 48 49 50
000
ASUS45 KREV 070510
RWRNV
NEVADA REGIONAL WEATHER ROUNDUP
NATIONAL WEATHER SERVICE RENO NV
1000 PM PDT WED MAY 06 2015

NOTE: "FAIR" INDICATES FEW OR NO CLOUDS BELOW 12,000 FEET WITH NO
SIGNIFICANT WEATHER AND/OR OBSTRUCTIONS TO VISIBILITY.

NVZ001-003-004-070600-
WESTERN NEVADA

CITY           SKY/WX    TMP DP  RH WIND       PRES   REMARKS
RENO           CLOUDY    51  28  41 W7        29.84R
CARSON CITY    CLOUDY    48  28  46 CALM      29.86S
MINDEN         FAIR      45  30  57 S8        29.88
SLIDE MTN        N/A     28  12  50 N10         N/A
FALLON         CLOUDY    56  26  31 W9        29.80R
LOVELOCK       CLOUDY    55  23  28 N18       29.80R
HAWTHORNE      MOCLDY    55  28  35 NW16      29.81R
$$

NVZ002-CAZ072-073-070600-
NORTHERN AND CENTRAL SIERRA

CITY           SKY/WX    TMP DP  RH WIND       PRES   REMARKS
S. LAKE TAHOE  MOCLDY    36  32  85 S9        29.89F
TRUCKEE        MOCLDY    32  32 100 S3        29.90S
SQUAW VLY 8000   N/A     30  30 100 CALM        N/A
BLUE CANYON    PTCLDY    43  24  47 NE6       29.87F
MAMMOTH LAKES  FAIR      41  25  52 W16G29    29.83S
BRIDGEPORT     FAIR      40  23  50 CALM      29.85R
$$

NVZ030-031-036-070600-
NORTHERN NEVADA

CITY           SKY/WX    TMP DP  RH WIND       PRES   REMARKS
ELKO           MOCLDY    50  30  46 N7        29.76R
WINNEMUCCA     NOT AVBL
WENDOVER       CLOUDY    48  43  81 N8        29.81R
$$

NVZ035-037-070600-
CENTRAL NEVADA

CITY           SKY/WX    TMP DP  RH WIND       PRES   REMARKS
ELY            LGT RAIN  42  39  89 S13       29.82R
EUREKA           N/A     47  35  63 S8        29.77R
$$

NVZ013-014-070600-
SOUTH CENTRAL NEVADA

CITY           SKY/WX    TMP DP  RH WIND       PRES   REMARKS
TONOPAH        NOT AVBL
$$

NVZ017-020-022-070600-
SOUTHERN NEVADA

CITY           SKY/WX    TMP DP  RH WIND       PRES   REMARKS
LAS VEGAS      CLEAR     76  21  12 S20G28    29.60R
N. LAS VEGAS   CLEAR     75  20  12 S20G29    29.62R
NELLIS AFB     CLEAR     75  32  20 S20       29.61R
HENDERSON      CLEAR     71  29  21 S13       29.67R
MERCURY        CLEAR     69  25  19 S15G21    29.64R
$$



USA.gov is the U.S. government's official web portal to all federal, state and local government web resources and services.